Wind_Speed
13 13 13 13 13 12 10 11 11 11 11 11 11 10 10 10 9 8 8 9 8 8 7 7 7 7 8 8 8 9 9 9 10 10 10 9 9 8 7 7 7 7 6 6 5 5 4 4 4
13 13 13 13 13 11 10 11 11 11 11 11 11 10 9 9 9 9 9 9 8 8 7 7 7 6 6 7 8 9 9 9 9 9 9 8 8 7 6 6 7 6 6 6 5 4 4 3 3
13 13 12 12 11 10 10 11 11 11 11 11 11 10 9 9 9 9 9 8 8 7 7 6 7 7 6 7 7 8 8 8 8 8 7 7 6 6 6 6 6 6 6 6 5 4 4 3 2
12 12 11 11 10 9 10 11 11 11 11 11 11 10 9 9 9 8 8 8 7 6 6 6 5 6 6 6 6 6 6 7 7 7 7 6 6 6 6 6 6 6 6 5 4 3 3 3 2
11 12 11 11 10 10 10 11 11 11 11 11 11 10 9 9 8 8 8 7 6 5 5 4 5 5 5 5 5 6 6 6 6 6 6 5 5 5 5 6 6 6 5 4 3 2 2 2 3
12 12 12 10 10 10 10 11 11 11 10 10 10 9 9 8 7 7 6 6 5 4 4 4 4 4 5 5 5 6 6 6 6 6 6 5 5 5 5 5 5 5 4 3 3 3 3 3 3
12 12 11 10 10 10 10 10 10 10 9 9 9 9 8 8 7 6 6 5 4 4 4 4 4 4 4 5 5 5 6 5 5 6 6 5 5 5 5 5 4 4 4 3 3 3 2 2 2
11 11 10 10 10 10 10 10 10 10 9 8 8 8 7 7 7 6 5 5 4 4 3 3 4 4 4 4 4 5 4 4 5 5 5 5 5 5 5 5 4 3 3 3 3 2 2 2 2
11 11 9 10 10 10 9 10 9 9 9 8 7 7 7 6 7 6 5 5 4 4 4 3 4 4 4 4 4 4 4 4 4 5 5 5 5 5 5 4 4 3 3 3 3 2 2 1 2
11 10 9 10 10 9 9 9 9 9 9 8 8 7 6 6 6 6 6 5 4 4 4 4 3 4 4 3 3 3 3 4 4 4 5 5 4 4 4 4 4 3 3 3 2 2 2 2 1
9 8 8 8 9 9 9 9 8 9 8 8 8 7 7 6 6 6 5 5 5 4 4 4 4 3 3 3 3 3 3 3 3 4 4 4 4 3 3 3 2 2 2 2 2 2 1 1 1
8 7 7 7 8 8 8 8 8 8 8 8 7 8 8 7 7 6 6 6 5 4 4 4 4 4 3 3 3 3 3 3 3 3 3 4 3 3 3 2 2 1 1 1 1 1 1 1 1
7 7 7 7 7 8 8 8 8 7 7 7 7 7 7 7 7 6 6 6 5 5 5 5 4 4 4 3 3 2 2 2 3 3 3 3 3 3 3 2 2 2 1 1 1 1 1 1 1
6 6 6 6 6 7 7 7 7 7 7 6 6 5 6 6 6 6 6 6 6 5 4 4 4 4 4 4 3 3 3 3 3 2 2 2 2 2 2 1 1 0 0 0 1 1 1 1 2
5 5 5 5 5 6 6 6 6 6 6 5 5 5 5 6 5 5 5 5 5 5 4 3 4 4 4 3 3 3 2 2 2 1 1 1 2 1 1 1 0 1 1 2 2 2 2 3 3
3 4 3 3 3 4 5 5 4 5 5 4 4 4 4 4 4 4 3 4 4 4 4 3 3 3 2 2 2 2 2 2 1 1 1 1 1 2 1 1 1 1 2 3 3 4 3 4 4
1 1 0 1 2 3 4 5 4 4 3 4 3 3 3 3 2 2 2 3 3 3 3 2 2 2 1 1 1 2 1 1 1 1 1 1 1 1 2 2 2 2 3 4 4 4 4 5 5
3 3 3 3 4 4 4 4 5 4 4 4 4 3 3 2 2 2 2 2 1 2 2 1 1 1 0 1 1 0 0 1 1 2 2 2 2 3 3 4 4 4 4 4 4 5 5 5 6
5 4 3 4 4 3 4 4 5 5 4 4 4 4 3 3 3 2 2 2 1 0 0 1 1 1 0 1 1 2 2 2 3 3 3 4 4 4 5 5 6 6 6 5 5 5 6 7 6
7 5 5 5 4 3 4 4 4 5 5 5 5 4 4 3 3 3 3 3 3 2 2 2 2 2 2 2 2 3 3 4 5 5 5 6 6 6 7 7 7 7 7 7 7 7 7 8 8
7 7 7 6 6 5 5 5 5 6 6 6 6 5 5 4 4 4 4 4 5 5 5 5 4 4 4 5 5 5 5 6 6 5 6 7 7 8 8 8 9 9 9 9 9 9 9 9 9
8 9 8 7 6 6 5 6 7 6 6 5 6 5 5 4 4 5 5 6 6 6 7 6 6 6 6 6 6 6 7 7 7 7 7 8 8 8 9 10 10 10 10 10 10 10 10 11 11
11 10 9 8 8 7 7 5 7 7 6 6 7 6 5 5 5 6 7 7 6 7 6 7 7 7 7 7 8 8 9 9 9 8 8 9 9 9 9 10 11 11 11 10 10 11 11 12 13
12 11 10 9 8 9 8 6 7 7 7 7 7 6 5 5 6 7 7 8 8 8 8 7 8 8 9 9 10 10 10 10 10 10 10 10 10 10 11 11 11 11 11 11 10 11 12 13 13
12 10 8 9 9 11 11 9 8 8 7 7 7 7 6 6 7 7 8 8 8 9 9 9 10 10 11 11 11 12 13 12 12 11 11 12 12 12 12 12 12 11 10 10 11 12 13 13 14
13 11 10 10 10 12 12 10 9 9 8 7 7 8 7 7 8 8 9 9 10 10 11 11 12 12 12 13 13 13 13 14 14 13 12 13 13 14 14 13 13 11 11 12 12 12 13 14 15
15 13 12 12 13 13 13 12 10 10 9 8 9 9 9 9 10 10 11 12 12 12 12 13 14 14 14 14 15 15 14 15 15 15 14 14 14 14 14 14 13 13 12 13 13 14 14 15 16
18 16 14 13 14 14 14 13 12 12 12 11 10 11 11 11 11 12 13 13 13 14 14 14 15 15 15 15 16 16 15 15 16 16 15 15 14 14 14 14 14 14 14 15 15 16 16 18 19
19 18 17 16 16 15 16 15 14 14 14 14 13 12 12 13 13 14 14 14 14 15 16 17 17 16 16 16 16 16 16 15 15 15 16 16 16 16 15 15 16 16 17 17 18 19 19 20 20
21 20 19 18 19 18 18 18 16 15 15 15 16 15 15 15 15 15 16 16 17 17 18 18 18 18 17 17 17 17 17 17 17 16 16 17 17 17 17 17 17 18 18 19 20 21 22 22 22
Wind_Direction
80 80 80 80 83 82 86 87 85 85 87 91 91 93 94 96 102 103 99 101 101 100 102 100 102 99 99 99 101 100 99 106 115 119 118 121 123 122 121 123 121 121 122 119 115 109 105 106 108
81 81 80 79 82 84 87 88 89 87 88 90 89 88 90 93 97 98 100 104 103 104 107 102 102 102 99 101 104 103 103 106 112 114 120 124 128 131 130 126 124 122 122 121 117 106 103 107 109
80 79 77 78 84 85 87 89 88 88 89 86 84 84 86 93 95 94 101 106 104 102 101 98 100 102 101 104 105 105 105 106 108 115 122 128 134 137 130 127 128 127 124 124 122 112 104 98 100
80 78 77 76 80 81 85 89 88 88 88 85 83 85 88 92 91 93 100 103 104 106 100 90 101 107 106 107 106 107 109 107 109 113 116 119 124 131 132 129 129 130 127 126 124 119 106 94 103
81 78 77 78 79 79 83 88 87 83 82 83 83 85 89 93 89 93 98 100 102 107 104 92 101 113 109 107 109 112 114 110 110 111 117 118 119 121 131 135 133 130 128 125 122 113 111 106 114
80 79 81 84 83 81 80 81 82 80 80 82 82 81 87 88 87 89 92 94 98 101 105 103 101 111 114 113 113 109 110 110 113 113 111 114 116 115 124 128 132 134 131 126 118 113 106 106 116
81 83 86 88 85 84 82 80 80 79 79 80 82 81 83 83 84 84 85 85 88 97 106 117 114 115 117 117 119 119 116 108 109 111 108 108 115 116 111 115 128 133 134 136 129 123 108 117 126
85 84 84 86 84 83 81 79 80 80 80 81 82 84 82 78 77 77 76 79 79 86 101 121 113 116 123 123 123 122 121 112 109 108 105 104 108 108 106 102 117 124 129 135 132 131 130 125 127
87 87 90 88 84 83 81 77 76 78 78 77 78 79 76 78 75 72 73 75 77 83 97 111 118 115 119 123 121 120 118 118 121 113 107 105 103 103 103 101 104 121 130 127 125 120 118 112 120
88 96 94 89 84 83 80 78 75 74 75 74 71 70 72 75 73 69 69 73 78 88 104 115 118 122 123 125 128 130 129 125 123 120 110 106 105 104 102 101 98 111 131 136 132 124 111 94 113
94 99 93 86 78 77 75 72 72 72 70 69 66 66 70 70 66 65 65 69 78 91 106 114 111 117 124 122 126 132 127 124 114 113 108 102 94 100 105 106 106 117 144 163 157 137 119 117 127
99 96 90 81 74 72 70 67 66 66 66 67 67 70 70 68 64 67 65 69 79 90 104 115 116 113 118 117 116 117 115 108 110 106 107 92 88 96 102 104 105 124 140 159 170 171 151 140 174
94 89 83 78 74 73 71 66 59 57 55 61 68 73 69 70 71 70 67 74 77 89 102 112 119 126 131 130 124 115 107 107 104 101 95 93 97 101 103 96 99 115 129 155 162 195 211 219 239
95 89 82 78 70 66 66 62 53 49 47 54 64 69 67 68 71 67 69 75 75 86 103 109 118 127 129 126 124 119 107 101 104 99 89 88 87 86 98 97 96 96 255 288 285 282 265 256 247
96 87 76 73 65 56 53 54 47 42 39 45 56 64 65 64 65 64 68 73 74 80 91 101 109 118 122 117 110 108 93 95 101 90 83 74 67 57 39 34 19 312 300 293 288 288 278 271 272
94 74 66 62 50 45 41 35 31 31 27 30 40 50 50 58 58 58 67 75 76 82 86 95 104 108 117 123 120 109 91 76 62 38 32 39 49 31 8 343 327 299 296 298 292 286 284 289 285
74 91 236 315 337 351 10 8 1 12 10 12 17 25 26 35 39 34 50 77 78 80 94 101 103 100 110 136 134 117 99 72 8 355 359 359 5 353 349 349 336 315 300 297 289 291 288 285 281
225 234 253 276 299 318 334 341 341 350 353 355 354 352 356 356 0 10 13 40 75 74 81 93 93 103 150 208 233 209 351 330 315 307 302 297 287 286 297 310 314 305 299 295 296 293 293 289 289
235 241 260 279 296 301 305 318 332 334 334 339 338 337 339 334 330 335 340 344 344 337 356 312 284 255 306 272 273 283 290 296 293 295 297 293 286 286 292 299 306 304 301 301 300 294 292 291 298
239 246 265 282 294 296 296 310 315 322 323 323 318 310 307 312 304 301 309 320 312 289 276 276 281 271 281 285 287 297 298 301 302 294 299 292 288 289 291 292 297 300 302 301 297 294 290 289 292
248 252 260 277 293 299 294 308 305 307 312 318 314 308 303 290 284 286 296 299 303 305 295 271 270 273 280 285 288 293 298 296 297 292 299 301 290 289 291 288 291 295 296 297 297 293 291 289 289
256 259 265 275 290 292 291 294 296 301 305 312 314 303 298 289 283 284 295 300 299 297 298 294 281 277 278 282 288 291 294 295 295 297 297 298 298 292 289 291 292 289 288 291 293 292 288 287 288
252 260 269 276 282 286 288 287 287 292 297 303 312 301 289 277 277 285 293 296 294 293 295 297 290 284 283 284 287 291 293 290 290 293 293 293 292 293 294 299 297 293 285 286 291 293 288 287 285
256 263 274 281 280 276 276 283 285 286 291 296 301 298 287 283 282 282 289 291 291 291 291 294 295 287 285 286 288 291 292 290 287 289 293 297 296 293 293 296 299 298 291 288 291 295 293 286 285
256 263 275 280 273 268 272 279 276 277 282 286 291 296 289 289 293 288 288 290 291 292 289 288 290 291 290 290 289 289 288 289 290 288 291 293 295 295 293 295 295 299 297 293 291 293 293 291 291
252 251 253 258 263 270 278 277 274 275 273 276 282 292 299 295 296 292 291 291 292 293 289 288 289 288 288 288 290 293 291 287 287 285 288 290 292 294 292 294 296 296 297 296 295 296 297 298 297
246 249 251 260 267 267 268 273 275 273 272 275 279 284 291 293 295 296 293 292 293 293 291 288 287 288 286 286 290 290 290 288 286 285 285 289 291 294 294 291 289 292 297 298 297 296 295 298 298
244 249 254 258 263 263 270 274 276 272 269 275 278 281 283 287 293 293 291 292 291 291 293 293 287 287 288 289 292 292 290 288 286 283 282 285 290 291 291 288 285 287 290 293 294 294 293 293 295
246 249 253 258 262 263 267 269 273 277 270 269 273 278 280 282 287 289 286 287 288 290 293 294 288 284 285 288 290 289 291 292 292 288 285 288 290 293 294 292 289 287 289 291 291 294 292 292 292
245 248 252 257 264 267 266 270 273 276 275 272 271 275 277 277 280 282 284 282 284 290 293 290 286 284 284 285 287 287 288 290 290 290 291 294 294 292 291 290 291 289 290 292 292 294 294 292 291
Height
5906 5905 5905 5906 5907 5907 5906 5905 5904 5903 5902 5901 5900 5900 5900 5900 5900 5902 5899 5897 5897 5897 5897 5897 5896 5896 5896 5896 5896 5896 5895 5895 5895 5895 5896 5897 5897 5898 5898 5899 5899 5900 5900 5900 5900 5900 5900 5900 5901
5908 5907 5908 5908 5909 5909 5908 5906 5905 5904 5904 5902 5902 5901 5901 5900 5900 5900 5899 5899 5899 5898 5898 5898 5898 5898 5898 5897 5897 5897 5897 5897 5897 5897 5897 5898 5898 5898 5899 5899 5900 5900 5900 5900 5901 5901 5901 5901 5901
5909 5909 5910 5910 5910 5910 5909 5907 5906 5905 5904 5904 5903 5903 5902 5901 5901 5901 5900 5900 5900 5900 5900 5899 5899 5899 5899 5899 5899 5898 5898 5898 5898 5898 5898 5898 5899 5899 5899 5900 5900 5901 5901 5901 5901 5901 5901 5901 5901
5911 5912 5912 5912 5911 5911 5910 5908 5907 5906 5906 5905 5904 5904 5903 5903 5902 5902 5901 5902 5901 5901 5901 5900 5900 5900 5900 5900 5900 5900 5899 5899 5899 5899 5899 5899 5899 5900 5900 5900 5901 5901 5901 5902 5902 5902 5902 5902 5902
5913 5913 5914 5914 5913 5912 5911 5909 5909 5908 5907 5906 5905 5905 5904 5904 5903 5903 5903 5902 5902 5902 5902 5902 5901 5901 5901 5901 5901 5901 5901 5900 5900 5900 5900 5900 5900 5900 5900 5901 5901 5901 5902 5902 5902 5902 5902 5902 5902
5915 5915 5917 5916 5915 5913 5912 5911 5910 5909 5908 5907 5906 5906 5905 5905 5904 5904 5904 5903 5903 5903 5903 5903 5902 5902 5902 5902 5902 5902 5902 5901 5901 5901 5901 5901 5901 5901 5901 5901 5901 5902 5902 5902 5902 5902 5902 5902 5902
5917 5917 5917 5917 5916 5915 5914 5912 5911 5910 5909 5909 5908 5907 5906 5906 5905 5905 5905 5904 5904 5904 5904 5903 5903 5903 5903 5903 5903 5903 5903 5902 5902 5902 5902 5902 5901 5901 5901 5902 5902 5902 5902 5903 5903 5903 5903 5903 5903
5918 5919 5919 5918 5917 5916 5915 5914 5913 5911 5911 5910 5909 5908 5908 5907 5906 5906 5905 5905 5905 5904 5904 5904 5904 5904 5904 5904 5903 5903 5903 5903 5903 5903 5903 5902 5902 5902 5902 5902 5902 5902 5903 5903 5903 5903 5903 5903 5903
5919 5922 5921 5920 5919 5918 5916 5915 5914 5913 5912 5911 5910 5909 5909 5908 5907 5907 5906 5906 5905 5905 5905 5905 5905 5905 5905 5904 5904 5904 5904 5904 5904 5903 5903 5903 5903 5903 5902 5903 5903 5903 5903 5903 5903 5903 5903 5903 5902
5922 5923 5922 5921 5920 5919 5917 5916 5915 5914 5913 5912 5911 5910 5909 5909 5908 5907 5907 5906 5906 5906 5906 5905 5906 5906 5905 5905 5905 5905 5905 5904 5904 5904 5904 5904 5903 5903 5903 5903 5903 5903 5903 5903 5903 5903 5903 5902 5902
5923 5923 5923 5922 5921 5920 5919 5918 5916 5915 5914 5913 5913 5912 5910 5910 5909 5908 5908 5907 5906 5906 5906 5906 5906 5906 5906 5906 5906 5905 5905 5905 5905 5905 5904 5904 5904 5904 5904 5904 5903 5903 5903 5903 5903 5903 5903 5903 5903
5925 5924 5924 5923 5922 5921 5920 5919 5918 5917 5916 5915 5914 5913 5912 5911 5910 5909 5909 5908 5907 5907 5906 5907 5907 5907 5907 5906 5906 5906 5906 5906 5905 5905 5905 5905 5905 5904 5904 5904 5903 5903 5903 5903 5903 5903 5903 5902 5902
5926 5925 5925 5924 5923 5922 5921 5920 5919 5918 5917 5915 5915 5914 5913 5912 5911 5910 5909 5908 5908 5907 5907 5907 5907 5907 5907 5907 5907 5907 5906 5906 5906 5906 5905 5905 5905 5904 5904 5904 5904 5903 5903 5903 5903 5903 5903 5902 5902
5927 5926 5926 5925 5924 5923 5922 5921 5921 5919 5918 5917 5916 5915 5914 5913 5912 5911 5910 5909 5909 5908 5908 5907 5907 5907 5907 5907 5907 5907 5907 5906 5906 5906 5906 5905 5905 5905 5904 5904 5904 5904 5903 5903 5903 5903 5902 5902 5902
5927 5928 5927 5926 5925 5924 5924 5923 5921 5920 5919 5918 5917 5916 5915 5914 5913 5912 5911 5910 5910 5909 5908 5908 5908 5908 5908 5908 5907 5907 5907 5907 5906 5906 5906 5906 5905 5905 5904 5904 5904 5903 5903 5903 5902 5902 5902 5901 5901
5928 5929 5929 5928 5926 5925 5926 5925 5923 5921 5919 5918 5917 5917 5916 5915 5914 5913 5912 5911 5910 5910 5909 5909 5909 5909 5909 5908 5908 5908 5907 5907 5907 5906 5906 5906 5905 5905 5904 5904 5903 5903 5902 5902 5902 5902 5901 5901 5900
5930 5930 5930 5929 5927 5926 5926 5925 5923 5921 5920 5919 5918 5917 5916 5915 5915 5914 5913 5912 5911 5911 5910 5910 5910 5909 5909 5909 5908 5908 5908 5907 5907 5907 5906 5906 5905 5905 5904 5904 5903 5903 5902 5901 5901 5901 5900 5900 5899
5930 5930 5929 5929 5927 5926 5926 5925 5923 5922 5920 5919 5918 5917 5916 5915 5915 5914 5913 5912 5911 5911 5911 5911 5910 5910 5909 5909 5908 5908 5907 5907 5907 5906 5906 5906 5905 5905 5904 5903 5903 5902 5901 5900 5900 5899 5899 5899 5898
5929 5929 5929 5928 5927 5926 5925 5924 5923 5922 5920 5919 5918 5917 5916 5915 5915 5914 5913 5912 5912 5911 5911 5911 5910 5910 5909 5909 5908 5908 5907 5907 5906 5906 5905 5905 5904 5903 5903 5902 5902 5901 5900 5899 5899 5898 5898 5897 5897
5927 5928 5928 5927 5926 5925 5925 5924 5923 5922 5920 5919 5918 5917 5916 5915 5914 5914 5913 5913 5912 5912 5911 5910 5910 5909 5909 5908 5907 5907 5907 5906 5905 5905 5904 5903 5903 5902 5901 5901 5900 5899 5898 5897 5897 5896 5896 5895 5895
5926 5926 5926 5926 5925 5924 5924 5924 5923 5921 5920 5918 5917 5916 5915 5914 5914 5913 5913 5912 5912 5911 5910 5909 5909 5909 5908 5908 5907 5906 5906 5905 5904 5903 5902 5902 5901 5900 5900 5899 5898 5897 5896 5896 5895 5894 5894 5893 5892
5924 5924 5924 5924 5924 5924 5924 5924 5922 5920 5919 5918 5917 5915 5914 5914 5913 5913 5912 5911 5910 5910 5909 5908 5908 5907 5907 5906 5906 5905 5904 5903 5902 5901 5901 5900 5899 5898 5897 5897 5896 5895 5894 5893 5892 5892 5891 5891 5890
5922 5922 5922 5922 5922 5923 5922 5922 5922 5919 5918 5917 5916 5914 5914 5913 5912 5912 5911 5910 5910 5909 5908 5907 5906 5906 5905 5904 5904 5903 5902 5902 5901 5899 5899 5898 5897 5896 5895 5894 5893 5892 5891 5890 5890 5889 5888 5888 5887
5919 5919 5920 5920 5921 5922 5921 5920 5920 5918 5916 5915 5914 5913 5912 5912 5911 5910 5910 5909 5908 5907 5906 5905 5904 5904 5903 5902 5902 5901 5900 5899 5898 5897 5896 5895 5894 5894 5893 5892 5891 5889 5888 5887 5887 5886 5885 5884 5884
5916 5918 5920 5921 5921 5921 5918 5917 5918 5915 5914 5913 5913 5912 5911 5910 5909 5908 5908 5907 5906 5905 5904 5904 5903 5902 5901 5900 5899 5898 5897 5896 5895 5894 5894 5893 5892 5891 5890 5889 5888 5887 5885 5884 5884 5883 5882 5881 5880
5913 5916 5918 5919 5919 5918 5915 5915 5915 5913 5912 5911 5911 5910 5909 5908 5907 5906 5906 5905 5904 5903 5902 5901 5900 5899 5898 5897 5896 5895 5894 5893 5892 5891 5890 5890 5889 5888 5887 5886 5885 5884 5883 5882 5881 5880 5879 5877 5876
5909 5911 5913 5914 5914 5914 5913 5912 5912 5911 5910 5909 5909 5908 5907 5906 5905 5904 5903 5902 5901 5901 5900 5899 5897 5896 5895 5894 5893 5891 5891 5889 5888 5888 5887 5886 5885 5884 5883 5882 5882 5881 5880 5879 5878 5877 5875 5874 5872
5905 5907 5908 5910 5910 5911 5910 5909 5909 5908 5907 5906 5906 5905 5905 5904 5903 5901 5900 5899 5898 5897 5896 5895 5894 5893 5892 5891 5889 5888 5887 5886 5885 5884 5883 5882 5882 5881 5880 5879 5878 5877 5876 5875 5874 5872 5871 5869 5868
5901 5902 5903 5904 5905 5906 5907 5908 5905 5904 5903 5902 5902 5902 5901 5900 5899 5898 5897 5896 5895 5894 5893 5891 5890 5889 5888 5887 5886 5884 5883 5882 5881 5880 5879 5878 5877 5876 5875 5875 5874 5873 5872 5870 5869 5868 5866 5864 5863
5895 5897 5898 5900 5900 5900 5901 5904 5900 5899 5899 5898 5898 5897 5897 5896 5895 5894 5893 5892 5891 5890 5889 5887 5886 5885 5884 5883 5882 5880 5879 5878 5877 5876 5875 5874 5873 5872 5871 5870 5869 5867 5866 5865 5864 5862 5860 5858 5857